Date String (YYYY-MM-DD hh:mm:ss) UTC,Instrument flags,absolute air pressure of the measurement (hPa),sample flow rate (lpm),inlet stack bypass flow (lpm),air temperature of the measurement (°C),ambient temperature measured by the external sensor (°C),aerosol sample conditioner tube jacket temperature (°C),OPC LED temperature (°C),internal box temperature (°C),relative humidity of the measurement (%),span deviation,mass concentration of particles derived from Lorenz-Mie calculation of OPC scattering (μg/m³),mass concentration of particles derived from Lorenz-Mie calculation of OPC scattering (μg/m³),mass concentration of particles derived from Lorenz-Mie calculation of OPC scattering (μg/m³)
DateTimeUTC,F1_M11,P_M11,Q1_M11,Q2_M11,T1_M11,T2_M11,T3_M11,T4_M11,T5_M11,U1_M11,ZSPAN_M11,X2_M11,X0_M11,X1_M11
2024-05-01 14:00:00,SystemResetWarning,0823.9,4.99,000.00,024.7,024.0,000.0,033.2,026.6,015.0,0000.0,0003.87,0012.41,0002.25
2024-05-01 14:01:00,SystemResetWarning,0824.0,4.99,000.00,024.7,024.0,000.0,033.2,026.6,015.6,0000.0,0003.80,0011.48,0002.23
2024-05-01 14:02:00,SystemResetWarning,0823.9,5.02,000.00,024.7,024.0,000.0,033.2,026.6,015.8,0000.0,0003.78,0011.05,0002.22
2024-05-01 14:03:00,SystemResetWarning,0824.0,5.01,000.00,024.7,024.0,000.0,033.2,026.6,015.6,0000.0,0003.78,0011.72,0002.24
2024-05-01 14:04:00,SystemResetWarning,0823.9,4.99,000.00,024.7,024.0,000.0,033.2,026.6,015.3,0000.0,0003.81,0011.80,0002.24
2024-05-01 14:05:00,SystemResetWarning,0824.0,4.99,000.00,024.7,024.0,000.0,033.2,026.6,015.0,0000.0,0003.84,0012.02,0002.24
2024-05-01 14:06:00,SystemResetWarning,0824.0,5.01,000.00,024.7,024.0,000.0,033.2,026.6,015.3,0000.0,0003.84,0011.85,0002.23
2024-05-01 14:07:00,SystemResetWarning,0823.9,5.01,000.00,024.7,024.0,000.0,033.2,026.6,015.0,0000.0,0003.80,0011.70,0002.21
2024-05-01 14:08:00,SystemResetWarning,0823.9,4.99,000.00,024.7,024.1,000.0,033.2,026.6,015.2,0000.0,0003.73,0011.52,0002.20
2024-05-01 14:09:00,SystemResetWarning,0823.9,5.00,000.00,024.7,024.1,000.0,033.2,026.6,015.2,0000.0,0003.67,0011.44,0002.18
2024-05-01 14:10:00,SystemResetWarning,0823.9,5.01,000.00,024.7,024.1,000.0,033.2,026.6,015.9,0000.0,0003.71,0010.92,0002.17
2024-05-01 14:11:00,SystemResetWarning,0823.8,5.00,000.00,024.7,024.1,000.0,033.2,026.6,015.8,0000.0,0003.77,0011.31,0002.17
2024-05-01 14:12:00,SystemResetWarning,0823.9,5.00,000.00,024.7,024.1,000.0,033.2,026.6,015.7,0000.0,0003.82,0011.40,0002.17
2024-05-01 14:13:00,SystemResetWarning,0823.8,4.99,000.00,024.7,024.1,000.0,033.2,026.6,015.5,0000.0,0003.82,0011.28,0002.16
2024-05-01 14:14:00,SystemResetWarning,0823.8,4.99,000.00,024.8,024.1,000.0,033.2,026.6,015.8,0000.0,0003.84,0010.42,0002.14
2024-05-01 14:15:00,SystemResetWarning,0823.8,4.99,000.00,024.7,024.1,000.0,033.2,026.6,015.5,0000.0,0003.81,0010.29,0002.13
2024-05-01 14:16:00,SystemResetWarning,0823.8,5.02,000.00,024.8,024.1,000.0,033.2,026.6,015.7,0000.0,0003.76,0010.13,0002.13
2024-05-01 14:17:00,SystemResetWarning,0823.8,5.01,000.00,024.8,024.1,000.0,033.2,026.6,015.2,0000.0,0003.72,0010.53,0002.13
2024-05-01 14:18:00,SystemResetWarning,0823.7,4.99,000.00,024.8,024.1,000.0,033.2,026.6,015.7,0000.0,0003.73,0010.51,0002.14
2024-05-01 14:19:00,SystemResetWarning,0823.7,5.00,000.00,024.8,024.1,000.0,033.2,026.6,016.0,0000.0,0003.74,0010.50,0002.15
2024-05-01 14:20:00,SystemResetWarning,0823.7,4.99,000.00,024.8,024.1,000.0,033.3,026.7,016.5,0000.0,0003.74,0010.04,0002.16
2024-05-01 14:21:00,SystemResetWarning,0823.7,5.01,000.00,024.8,024.1,000.0,033.3,026.6,015.8,0000.0,0003.71,0010.07,0002.14
2024-05-01 14:22:00,SystemResetWarning,0823.7,5.01,000.00,024.8,024.1,000.0,033.3,026.6,015.8,0000.0,0003.67,0010.70,0002.15
2024-05-01 14:23:00,SystemResetWarning,0823.7,5.01,000.00,024.8,024.1,000.0,033.3,026.7,015.8,0000.0,0003.65,0011.08,0002.16
2024-05-01 14:24:00,SystemResetWarning,0823.6,5.00,000.00,024.8,024.1,000.0,033.3,026.7,016.0,0000.0,0003.65,0011.39,0002.17
2024-05-01 14:25:00,SystemResetWarning,0823.6,4.99,000.00,024.8,024.1,000.0,033.3,026.7,016.0,0000.0,0003.62,0011.63,0002.18
2024-05-01 14:26:00,SystemResetWarning,0823.6,4.99,000.00,024.8,024.2,000.0,033.3,026.7,016.0,0000.0,0003.61,0011.81,0002.17
2024-05-01 14:27:00,SystemResetWarning,0823.6,4.99,000.00,024.8,024.2,000.0,033.3,026.7,016.0,0000.0,0003.61,0011.67,0002.16
2024-05-01 14:28:00,SystemResetWarning,0823.6,5.00,000.00,024.8,024.2,000.0,033.3,026.7,016.2,0000.0,0003.62,0011.35,0002.17
2024-05-01 14:29:00,SystemResetWarning,0823.5,5.01,000.00,024.8,024.2,000.0,033.3,026.7,015.8,0000.0,0003.65,0011.49,0002.18
2024-05-01 14:30:00,SystemResetWarning,0823.5,5.00,000.00,024.8,024.2,000.0,033.3,026.7,015.4,0000.0,0003.65,0011.90,0002.19
2024-05-01 14:31:00,SystemResetWarning,0823.5,4.98,000.00,024.8,024.2,000.0,033.3,026.7,015.8,0000.0,0003.66,0011.97,0002.20
2024-05-01 14:32:00,SystemResetWarning,0823.5,5.00,000.00,024.9,024.2,000.0,033.3,026.7,016.0,0000.0,0003.66,0012.58,0002.21
2024-05-01 14:33:00,SystemResetWarning,0823.5,5.02,000.00,024.9,024.2,000.0,033.3,026.7,016.0,0000.0,0003.65,0011.06,0002.21
2024-05-01 14:34:00,SystemResetWarning,0823.5,4.99,000.00,024.9,024.2,000.0,033.3,026.7,016.1,0000.0,0003.62,0010.94,0002.21
2024-05-01 14:35:00,SystemResetWarning,0823.4,4.99,000.00,024.9,024.2,000.0,033.3,026.7,016.3,0000.0,0003.59,0010.95,0002.22
2024-05-01 14:36:00,SystemResetWarning,0823.4,5.02,000.00,024.9,024.2,000.0,033.3,026.7,016.8,0000.0,0003.55,0010.52,0002.20
2024-05-01 14:37:00,SystemResetWarning,0823.4,5.01,000.00,024.9,024.2,000.0,033.3,026.7,016.7,0000.0,0003.54,0010.40,0002.21
2024-05-01 14:38:00,SystemResetWarning,0823.4,4.99,000.00,024.9,024.2,000.0,033.3,026.7,016.2,0000.0,0003.55,0010.48,0002.23
2024-05-01 14:39:00,SystemResetWarning,0823.4,4.99,000.00,024.9,024.2,000.0,033.3,026.7,016.2,0000.0,0003.58,0010.37,0002.23
2024-05-01 14:40:00,SystemResetWarning,0823.4,5.01,000.00,024.9,024.2,000.0,033.3,026.7,016.3,0000.0,0003.56,0010.59,0002.22
2024-05-01 14:41:00,SystemResetWarning,0823.4,5.01,000.00,024.9,024.2,000.0,033.4,026.8,016.6,0000.0,0003.57,0010.50,0002.21
2024-05-01 14:42:00,SystemResetWarning,0823.4,5.00,000.00,024.9,024.2,000.0,033.4,026.7,016.6,0000.0,0003.59,0010.56,0002.21
2024-05-01 14:43:00,SystemResetWarning,0823.4,5.00,000.00,024.9,024.3,000.0,033.4,026.8,016.7,0000.0,0003.58,0010.26,0002.22
2024-05-01 14:44:00,SystemResetWarning,0823.4,4.99,000.00,024.9,024.3,000.0,033.4,026.8,016.9,0000.0,0003.61,0011.51,0002.23
2024-05-01 14:45:00,SystemResetWarning,0823.4,4.99,000.00,024.9,024.3,000.0,033.4,026.8,016.6,0000.0,0003.67,0012.04,0002.25
2024-05-01 14:46:00,SystemResetWarning,0823.4,5.01,000.00,024.9,024.3,000.0,033.4,026.8,016.4,0000.0,0003.67,0011.45,0002.26
2024-05-01 14:47:00,SystemResetWarning,0823.4,5.00,000.00,025.0,024.3,000.0,033.4,026.8,016.4,0000.0,0003.70,0011.50,0002.28
2024-05-01 14:48:00,SystemResetWarning,0823.4,4.98,000.00,025.0,024.3,000.0,033.4,026.8,016.3,0000.0,0003.72,0011.40,0002.30
2024-05-01 14:49:00,SystemResetWarning,0823.3,5.02,000.00,025.0,024.3,000.0,033.4,026.8,016.5,0000.0,0003.74,0011.73,0002.32
2024-05-01 14:50:00,SystemResetWarning,0823.3,5.00,000.00,025.0,024.3,000.0,033.4,026.8,016.9,0000.0,0003.75,0011.79,0002.34
2024-05-01 14:51:00,SystemResetWarning,0823.3,5.00,000.00,025.0,024.3,000.0,033.4,026.8,016.9,0000.0,0003.76,0011.44,0002.38
2024-05-01 14:52:00,SystemResetWarning,0823.3,5.00,000.00,025.0,024.3,000.0,033.4,026.8,016.7,0000.0,0003.75,0010.81,0002.42
2024-05-01 14:53:00,SystemResetWarning,0823.2,5.00,000.00,025.0,024.3,000.0,033.4,026.8,016.2,0000.0,0003.75,0010.87,0002.44
2024-05-01 14:54:00,SystemResetWarning,0823.2,4.99,000.00,025.0,024.3,000.0,033.4,026.8,017.1,0000.0,0003.77,0011.79,0002.47
2024-05-01 14:55:00,SystemResetWarning,0823.0,5.01,000.00,025.0,024.4,000.0,033.4,026.8,016.9,0000.0,0003.80,0011.15,0002.49
2024-05-01 14:56:00,SystemResetWarning,0823.0,5.01,000.00,025.0,024.4,000.0,033.4,026.9,016.6,0000.0,0003.78,0011.21,0002.50
2024-05-01 14:57:00,SystemResetWarning,0823.0,5.00,000.00,025.0,024.4,000.0,033.5,026.8,016.5,0000.0,0003.82,0011.39,0002.51
2024-05-01 14:58:00,SystemResetWarning,0823.0,5.00,000.00,025.0,024.3,000.0,033.5,026.8,017.0,0000.0,0003.86,0011.50,0002.53
2024-05-01 14:59:00,SystemResetWarning,0823.0,5.00,000.00,025.0,024.3,000.0,033.5,026.9,016.5,0000.0,0003.89,0011.57,0002.54
